Время (UTC), дата Ветер
(°,м/с) 
Видим.   Явления Облачность Т
(°С)
Тd
(°С)
f(%) Тe
(°С)
Pmin
(гПа)
dP
(гПа)
Po
(мм)
O2
(г/м3)
Тmin Tmax R s Состояние
почвы
00 12.11.14 180 (Ю) 1000 м  морось  10/10 240 м 
[St]
+2.2 +1.1 92 +3  1032.7  -1.6  763  305           
03 12.11.14 200 (Ю) 4000 м  в посл. час морось  10/10 500 м 
[St]
+2.8 +1.9 94 +4  1031.4  -1.2  762  304  +1.5    0.0     
06 12.11.14 250 (З) 10 км  {морось}  10/10 630 м 
[Sc]
+4.2 +1.1 80 +4  1030.7  -0.7  762  302           
09 12.11.14 240 (ЮЗ) 10 км    9/9 840 м 
[Sc]
+4.6 +0.5 75 +3  1029.7  -0.9  761  302           
12 12.11.14 250 (З) 10 км    9/9 720 м 
[Sc]
+5 +0.7 74 +5  1028.7  -1  760  301           
15 12.11.14 240 (ЮЗ) 10 км    8/8 600 м 
[Sc]
+4.1 +1 80 +4  1028.1  -0.6  760  302    +5       
18 12.11.14 250 (З) 10 км    10/10 840 м 
[Sc diur, vesp]
+2.9 +0 81 +2  1027.1  -1  759  303           
21 12.11.14 250 (З) 10 км    10/10 840 м 
[Sc diur, vesp]
+2.6 -0.2 82 +2  1026.7  -0.4  759  303           
00 13.11.14 250 (З) 10 км    10/10 800 м 
[Sc diur, vesp]
+2.7 +0.2 84 +2  1026.5  0.1  759  303           
03 13.11.14 270 (З) 10 км    10/10 800 м 
[Sc diur, vesp]
+3 +0.6 84 +2  1026.6  759  302  +2.5         
06 13.11.14 260 (З) 10 км    10/10 300 м 
[St]
+3 +1.1 87 +2  1027.1  0.5  759  302           
09 13.11.14 260 (З) 10 км  {дождь}  10/10 180 м 
[St]
+3.3 +1.6 89 +3  1027.2  0.1  759  302           
12 13.11.14 280 (З) 10 км  слаб. морось{дождь}  10/10 210 м 
[St]
+3.6 +1.9 89 +3  1027.1  759  302           
15 13.11.14 260 (З) 4000 м  слаб. морось{дождь}  10/10 120 м 
[Frnb|Ns]
+3.4 +2.3 93 +3  1027.3  0.1  759  302    +3.7  0.4     
18 13.11.14 290 (З) 2000 м  в посл. час дождь{морось}  10/10 100 м 
[St]
+3.3 +2.2 92 +3  1026.9  -0.3  759  302           
21 13.11.14 290 (З) 2000 м  дымка  10/10 120 м 
[St]
+3.3 +2.3 93 +3  1027  759  302           
00 14.11.14 310 (СЗ) 4000 м  дымка  10/10 150 м 
[St]
+3.2 +2.2 93 +3  1027.5  0.5  759  302           
03 14.11.14 360 (С) 10 км    10/10 660 м 
[Sc]
+2.3 +0.7 89 +2  1028.6  760  304  +2.3    0.6     
06 14.11.14 350 (С) 10 км    9/9 480 м 
[Sc]
+0.5 -2.1 83 1030.9  2.1  762  307  +0.5         
09 14.11.14 010 (С) 20000 м    ясно 
+0.4 -4.5 70 1032.5  1.6  763  308           
12 14.11.14 040 (СВ) 20000 м    ясно 
-0.6 -5.6 69 -1  1033.2  0.6  763  309           
15 14.11.14 070 (В) 10 км    ясно 
-2.5 -5.7 79 -4  1034.1  0.8  764  311    +2.3       
18 14.11.14 100 (В) 10 км    ясно 
-4.3 -6.5 85 -4  1034.1  0.1  764  313           
21 14.11.14 110 (В) 10 км    ясно 
-5.1 -6.9 87 -5  1033.8  -0.3  764  314           
00 15.11.14 тихо ()   10 км    ясно 
-6.3 -7.7 90 -6  1033  -0.3  763  316           
06 15.11.14 350 (С) 0500 м  туман  ?/?  
[]
-6.4 -7.5 92 -6  1032.4  763  315           
12 15.11.14 010 (С) 10 км  {туман} [диам. изморози 1 мм]  ясно 
-4.9 -7.9 79 -4  1031.8  -0.3  762  314           
15 15.11.14 360 (С) 10 км    ясно 
-5.9 -8.3 83 -6  1032.4  0.8  763  315    -4.5       
18 15.11.14 010 (С) 10 км    ясно 
-6.7 -8.6 86 -6  1033  -0.3  763  316           
21 15.11.14 020 (С) 10 км  ледяные иглы{снег}  6/6 300 м 
[St]
-8.8 -10.4 88 -10  1033.9  0.7  764  319           
00 16.11.14 040 (СВ) 10 км    10/0 
-8.4 -9.7 90 -10  1034.7  0.7  764  319           
03 16.11.14 350 (С) 10 км  слаб. снег  10/10 300 м 
[Frnb|Ns]
-8.4 -10 88 -10  1035.8  1.1  765  319  -9.1    0.0     
06 16.11.14 330 (СЗ) 10 км  {снег}  ясно 
-8.9 -11.4 82 -9  1037.1  1.3  766  320  -9.6         
09 16.11.14 020 (С) 10 км    9/9 480 м 
[Sc]
-7.3 -10.2 80 -9  1037.6  0.6  766  318           
12 16.11.14 010 (С) 10 км  в посл. час снег  1/1 600 м 
[Sc]
-6.3 -10.3 73 -8  1037.7  0.1  767  317           
15 16.11.14 360 (С) 10 км    ясно 
-7 -11.9 68 -7  1038.6  0.9  767  318    -5.9  0.0     
18 16.11.14 тихо ()   10 км    ясно 
-8.1 -12.1 73 -8  1038.8  0.1  767  320           
21 16.11.14 070 (В) 10 км    ясно 
-8.3 -11.7 76 -8  1039  0.2  767  320           
00 17.11.14 тихо ()   10 км    ясно 
-10.5 -12.7 84 -11  1039.5  0.4  768  323           
06 17.11.14 140 (ЮВ) 10 км    4/0 верхняя 
[Ci fib]
-9.7 -11.8 85 -10  1039.5  0.2  768  322  -10.5         
09 17.11.14 250 (З) 10 км    9/8 700 м верхняя 
[Sc|Ci fib]
-6 -10.4 71 -7  1038.9  -0.3  767  317           
12 17.11.14 260 (З) 10 км    9/6 600 м верхняя 
[Sc|Ci sp]
-6.5 -11.3 69 -8  1038  -0.9  767  318           
15 17.11.14 280 (З) 10 км    10/10 720 м 
[Sc]
-6.8 -10.9 73 -9  1037.2  -0.8  766  318    -5.7       
18 17.11.14 270 (З) 10 км    10/10 570 м 
[Sc]
-7.4 -11 75 -10  1037.5  0.3  766  318           
21 17.11.14 290 (З) 10 км  слаб. снег  10/10 600 м 
[Ns]
-7 -10.4 77 -8  1037.4  0.1  766  318           
00 18.11.14 290 (З) 10 км  слаб. снег  10/10 600 м 
[Ns]
-7.2 -11.2 73 -9  1037.4  766  318           
03 18.11.14 310 (СЗ) 10 км  слаб. снег  10/10 570 м 
[Sc]
-7.8 -11.1 77 -9  1037.9  0.4  767  319  -7.8    0.0     
06 18.11.14 300 (СЗ) 10 км  слаб. снег  10/10 450 м 
[Sc]
-7.4 -10.9 76 -7  1038.3  0.5  767  319           
09 18.11.14 300 (СЗ) 10 км  слаб. снег  10/10 480 м 
[Sc]
-7.1 -10.6 76 -9  1038.3  767  318           
12 18.11.14 270 (З) 10 км  слаб. снег  9/9 480 м 
[Sc]
-7 -10.7 75 -8  1038.2  0.1  767  318           
15 18.11.14 260 (З) 10 км  {снег}  10/10 540 м 
[Sc]
-6.8 -10.2 77 -8  1038.2  767  318    -6.8  0.0     
18 18.11.14 250 (З) 10 км    10/10 540 м 
[St]
-6.8 -9.9 79 -8  1038  -0.2  767  318           
21 18.11.14 270 (З) 10 км    10/10 480 м 
[Sc]
-7 -9.9 80 -8  1037.8  -0.2  767  318           
00 19.11.14 270 (З) н/о    н/о 
-6.9 -9.6 81 -10  1037.9  767  318           
03 19.11.14 280 (З) 10 км  слаб. снег  10/9 540 м средняя 
[Frnb|As op]
-7.5 -10.6 78 -9  1037.4  -0.5  766  319  -7.9    0.0  сухой снег
10-40% 
06 19.11.14 280 (З) 4000 м  слаб. снег  10/10 600 м 
[Ns]
-6.4 -9.6 78 -8  1036.9  -0.5  766  317           
09 19.11.14 260 (З) 10 км  слаб. снег  10/10 600 м 
[Frnb|Ns]
-5.3 -8.4 79 -8  1036.5  -0.3  766  316           
15 19.11.14 270 (З) 10 км    10/10 540 м 
[Sc]
-4.3 -7.7 77 -7  1034.8  -0.7  764  314    -4.3  0.0     
18 19.11.14 310 (СЗ) 10 км    10/10 540 м 
[Sc]
-4.1 -7.2 79 -6  1034  -0.8  764  313           
21 19.11.14 290 (З) н/о    н/о 
-3.8 -7.2 77 -5  1033.5  -0.5  764  313           
00 20.11.14 310 (СЗ) 10 км    10/10 500 м 
[Sc]
-3.6 -6.8 78 -5  1033.3  0.1  763  312           
03 20.11.14 310 (СЗ) 10 км    10/10 720 м 
[Sc]
-3.5 -6.7 78 -3  1033.5  0.2  764  312  -4.3         
06 20.11.14 300 (СЗ) 10 км    10/10 630 м 
[Sc]
-3.4 -6.3 80 -5  1034.2  0.7  764  312           
09 20.11.14 290 (З) 10 км  в посл. час снег  10/10 400 м 
[Sc]
-2.2 -4.9 82 -3  1034.2  0.1  764  311           
12 20.11.14 290 (З) 10 км  {снег}  10/9 180 м средняя 
[Frnb|As op]
-2.2 -4.5 84 -4  1034.4  0.1  764  311           
15 20.11.14 290 (З) 10 км    10/8 210 м средняя 
[Frnb|As op]
-2.3 -4.6 84 -4  1034.1  -0.3  764  311    -2.1  0.0     
18 20.11.14 300 (СЗ) 10 км    10/8 420 м средняя 
[Frnb|As trans]
-3 -5.4 83 -5  1034.1  764  312           
21 20.11.14 310 (СЗ) 10 км    10/10 210 м 
[St]
-3.7 -5.5 87 -6  1034.1  764  313           
00 21.11.14 300 (СЗ) 4000 м  дымка  10/10 180 м 
[St]
-4.2 -5.2 93 -5  1034.5  0.3  764  313           
03 21.11.14 280 (З) 1000 м  дымка  10/10 180 м 
[St]
-4.7 -5.6 94 -6  1034.4  0.3  764  314  -4.7      <0.5  сухой снег
10-40% 
09 21.11.14 290 (З) 0500 м  снежные зёрна{туман} [диам. изморози 2 мм]  ?/?  
[]
-4.9 -5.7 94 -4  1034.6  -0.3  764  314           
15 21.11.14 250 (З) 0500 м  туман [диам. изморози 15 мм]  ?/?  
[]
-4.9 -5.7 94 -4  1033.7  -0.6  764  314    -4.6  0.0     
18 21.11.14 260 (З) 0500 м  переохл. туман [диам. изморози 18 мм]  ?/?  
-5.7 -6.6 93 -5  1032.6  -1.1  763  315           
21 21.11.14 260 (З) 0500 м  переохл. туман [диам. изморози 19 мм]  ?/?  
-6.1 -7 93 -6  1031.8  -0.9  762  315           
00 22.11.14 270 (З) 4000 м  в посл. час туман [диам. изморози 19 мм]  10/10 180 м 
[St]
-6.6 -7.5 93 -8  1030.7  -1.1  761  315           
03 22.11.14 270 (З) 4000 м  дымка [диам. изморози 19 мм]  10/10 150 м 
[St]
-6.5 -7.5 93 -8  1029.1  -1.5  760  315  -6.8      <0.5  сухой снег
10-40% 
06 22.11.14 290 (З) 10 км  [диам. изморози 19 мм]  10/10 240 м 
[St]
-6.3 -7.2 93 -9  1028.3  -0.9  760  314           
09 22.11.14 280 (З) 10 км  [диам. изморози 19 мм]  10/10 300 м 
[St]
-6.3 -7.3 93 -9  1027  -1.2  759  314           
12 22.11.14 270 (З) 10 км  [диам. изморози 19 мм]  10/10 330 м 
[]
-5 -5.9 94 -7  1025.5  -1.2  758  312           
15 22.11.14 280 (З) 10 км  [диам. изморози 19 мм]  10/10 330 м 
[St]
-4.3 -5.6 91 -7  1024.1  -1.3  757  310    -4.3       
18 22.11.14 300 (СЗ) 4{10}  10 км    10/10 180 м 
[St]
-4.7 -6.4 88 -8  1022.8  -1.3  756  311           
21 22.11.14 300 (СЗ) 10 км    8/0 средняя 
[Ac cast]
-5.4 -7 89 -9  1022.1  -0.8  755  311           
03 23.11.14 360 (С) 10 км  снежные зёрна  10/10 240 м 
[St]
-5.1 -6.7 89 -7  1023.6  1.5  756  311  -5.5    0.0  <0.5  сухой снег
10-40% 
06 23.11.14 350 (С) 10 км  снежные зёрна  10/10 330 м 
[St]
-4.4 -6.8 83 -6  1026  2.4  758  311           
09 23.11.14 350 (С) 10 км  слаб. крупа{ливн. осадки, снег}  9/9 800 м кучево-дожд. 
[Cb calv]
-3.6 -8.5 69 -6  1028.8  2.7  760  311           
12 23.11.14 030 (СВ) 10 км  {ливн. осадки, снег}  3/3 600 м 
[Sc]
-7.4 -12.3 68 -10  1032.1  762  317           
15 23.11.14 070 (В) 10 км  слаб. снег  9/9 700 м 
[Sc]
-9.3 -13.7 70 -11  1036.3  765  321    -3.4  0.0     
18 23.11.14 060 (СВ) 10 км  {снег}  ясно 
-11.4 -15 75 -15  1039.1  2.6  767  324           
21 23.11.14 070 (В) 10 км    ясно 
-12.8 -15.9 77 -16  1041.3  2.1  769  326           
00 24.11.14 060 (СВ) н/о    н/о 
-14.1 -16.9 79 -16  1043.2  1.8  770  329           
06 24.11.14 080 (В) 10 км    5/0 верхняя 
[Ci fib]
-15 -17.6 81 -17  1045.5  1.4  772  331  -15.6         
09 24.11.14 290 (З) 10 км    3/0 верхняя 
[Ci fib]
-10.7 -15.9 65 -11  1045.6  0.3  772  325           
12 24.11.14 250 (З) 10 км    ясно 
-10.5 -16.8 60 -10  1044.4  -1.1  771  325           
15 24.11.14 160 (Ю) 10 км    ясно 
-12.3 -16.4 71 -12  1044.4  -0.1  771  327    -9.9       
18 24.11.14 200 (Ю) 10 км    ясно 
-12.8 -16.4 74 -13  1044.1  -0.3  771  327           
21 24.11.14 220 (ЮЗ) 10 км    ясно 
-13.1 -16.2 78 -13  1043  -1  770  327           
00 25.11.14 270 (З) 10 км    ясно 
-12.2 -14.5 83 -16  1042.3  -0.6  770  326           
03 25.11.14 280 (З) 10 км    8/0 средняя 
[As trans]
-12.4 -14.8 82 -17  1041.2  -1.1  769  326  -13.4      <0.5  сухой снег
10-40% 
06 25.11.14 270 (З) 4000 м  слаб. снег  8/8 600 м 
[St]
-11.7 -14.5 80 -15  1040.8  -0.4  769  325           
09 25.11.14 270 (З) 4000 м  слаб. снег  10/10 480 м 
[Sc]
-8.9 -11.3 83 -11  1039.7  -0.8  768  321           
15 25.11.14 270 (З) 4000 м  слаб. снег  10/10 540 м 
[Sc]
-8.3 -11.2 80 -11  1038.2  -0.7  767  320    -8.2  0.2     
18 25.11.14 270 (З) 10 км  слаб. снег  10/10 540 м 
[Sc]
-8.3 -11.3 79 -11  1036.3  -1.9  765  319           
21 25.11.14 270 (З) 10 км  {снег}  ясно 
-9.5 -12.2 81 -12  1034.9  -1.4  764  320           
00 26.11.14 270 (З) 10 км  {снег}  10/10 400 м 
[St]
-9.4 -11.6 84 -12  1033.5  -1.4  763  320           
03 26.11.14 260 (З) 10 км    8/8 300 м 
[St]
-9.5 -11.4 86 -11  1031.8  -1.7  762  319  -9.7    0.0  <0.5  сухой снег
50-90% 
06 26.11.14 270 (З) 20000 м    8/4 1000 м средняя, верхняя 
[Sc|Ac lent|Ci fib]
-10.2 -12.5 83 -13  1030.9  -0.9  761  320  -10.2         
09 26.11.14 290 (З) 10 км  слаб. снег  10/10 270 м 
[St]
-9.5 -11.6 85 -12  1030.5  -0.3  761  319           
12 26.11.14 300 (СЗ) 4000 м  слаб. снег  10/8 420 м средняя 
[Frnb|As op]
-8.6 -11 83 -11  1030.5  0.1  761  318           
15 26.11.14 300 (СЗ) 10 км  слаб. снег  10/10 360 м 
[Frnb|Ns]
-7.9 -10.2 84 -9  1030.5  761  317    -7.9  0.2     
18 26.11.14 310 (СЗ) 4000 м  слаб. снег  10/10 300 м 
[Ns]
-7.3 -9 88 -7  1030.8  0.4  761  316           
21 26.11.14 310 (СЗ) 10 км  снежные зёрна  10/10 300 м 
[St]
-6.4 -8 88 -6  1031.2  0.4  762  315           
00 27.11.14 250 (З) н/о    н/о 
-6.4 -8 88 -6  1031.2  0.3  762  315           
03 27.11.14 150 (ЮВ) 10 км  снежные зёрна  10/10 420 м 
[St]
-5.9 -7.6 88 -6  1031.9  0.4  762  315  -7.9    0.0  <0.5  сухой снег
50-90% 
06 27.11.14 260 (З) 10 км  снежные зёрна  10/10 420 м 
[St]
-5.4 -7.9 82 -5  1032.8  0.9  763  314           
09 27.11.14 270 (З) 10 км  слаб. снег  10/10 360 м 
[Frnb|Ns]
-5.2 -7.5 84 -5  1033.9  1.1  764  315           
12 27.11.14 170 (Ю) 10 км  слаб. снег  10/10 330 м 
[Frnb|Ns]
-5.5 -7.7 84 -5  1034.7  0.7  764  315           
15 27.11.14 240 (ЮЗ) 10 км  слаб. снег  10/10 360 м 
[Frnb|Ns]
-5.6 -7.4 87 -5  1035.3  0.6  765  315    -5.2  0.2     
18 27.11.14 200 (Ю) 10 км  слаб. снег  10/10 330 м 
[Frnb|Ns]
-5.7 -7.3 89 -5  1035.7  0.6  765  316           
21 27.11.14 240 (ЮЗ) 4000 м  слаб. снег  10/10 480 м 
[Ns]
-5.7 -6.7 93 -5  1036.9  1.2  766  316           
03 28.11.14 270 (З) 10 км  {снег}  10/10 540 м 
[Ns]
-5.7 -6.7 93 -7  1037.7  0.5  767  316  -5.9    0.4  равномерный
сухой снег
100% 
06 28.11.14 260 (З) 10 км  {снег}  10/10 150 м 
[St]
-5.6 -6.5 93 -5  1038.6  0.9  767  316           
09 28.11.14 290 (З) 10 км    10/10 480 м 
[Sc]
-4.9 -6.8 86 -6  1039.3  0.7  768  316           
12 28.11.14 260 (З) 10 км    10/10 420 м 
[St]
-5.4 -7.6 84 -5  1039.6  0.3  768  317           
18 28.11.14 270 (З) 10 км    10/10 300 м 
[St]
-5.6 -7.5 86 -7  1040.3  0.2  768  317           
21 28.11.14 270 (З) 10 км    10/10 300 м 
[St]
-5.7 -7.6 86 -7  1040.7  0.4  769  317           
00 29.11.14 300 (СЗ) н/о    н/о 
-6.4 -8 88 -8  1040.8  769  318           
03 29.11.14 270 (З) 10 км    10/10 180 м 
[St]
-7.1 -8.4 91 -10  1040.8  769  319  -7.1      равномерный
сухой снег
100% 
06 29.11.14 300 (СЗ) 10 км    10/10 180 м 
[St]
-6.7 -7.8 92 -8  1040.5  -0.2  769  318           
09 29.11.14 270 (З) 10 км    10/10 240 м 
[St]
-5.9 -7.5 88 -8  1039.8  -0.6  768  317           
12 29.11.14 270 (З) 10 км    10/10 330 м 
[St]
-5.5 -7.4 86 -7  1039.1  -0.6  768  316           
15 29.11.14 260 (З) 10 км    10/10 300 м 
[St]
-5.4 -7.2 87 -5  1038.1  -1  767  316    -5.3       
18 29.11.14 280 (З) 10 км    10/10 300 м 
[St]
-5.5 -7.3 87 -5  1037.1  -1  766  316           
21 29.11.14 240 (ЮЗ) 10 км    10/10 240 м 
[St]
-6.4 -7.7 91 -9  1035.9  -1.2  765  317           
00 30.11.14 270 (З) 4000 м  дымка  10/10 120 м 
[St]
-7 -8.1 92 -8  1034.5  -1.4  764  317           
03 30.11.14 260 (З) 4000 м  дымка  10/10 120 м 
[St]
-7.3 -8.4 92 -9  1032.9  -1.7  763  317  -7.3      равномерный
сухой снег
100% 
06 30.11.14 270 (З) 4000 м  слаб. крупа{снег} [диам. изморози 1 мм]  10/10 150 м 
[St]
-8 -9.1 92 -10  1032.3  -0.5  763  317  -8.1         
09 30.11.14 290 (З) 10 км  {снег} [диам. изморози 1 мм]  10/10 240 м 
[St]
-8.3 -9.4 92 -10  1031.1  -1.2  762  317           
12 30.11.14 300 (СЗ) 4000 м  снежные зёрна  10/10 120 м 
[St]
-8.4 -9.5 92 -11  1029.9  -1.2  761  317           
15 30.11.14 240 (ЮЗ) 4000 м  снежные зёрна [диам. изморози 2 мм]  10/10 180 м 
[St]
-8.5 -9.7 91 -10  1028.6  -1.2  760  317    -7.3  0.3     
18 30.11.14 240 (ЮЗ) 10 км  {снег} [диам. изморози 2 мм]  10/10 180 м 
[St]
-8.4 -9.5 92 -10  1027.2  -1.4  759  316           
21 30.11.14 240 (ЮЗ) 4000 м  снежные зёрна [диам. изморози 2 мм]  10/0 
[St]
-8.6 -9.7 92 -10  1025.7  -1.5  758  316           
00 01.12.14 270 (З) 4000 м  снежные зёрна  н/о 
-9.9 -11.1 91 -12  1024.5  -1.2  757  317           
03 01.12.14 280 (З) 4000 м  снежные зёрна [диам. изморози 3 мм]  10/10 180 м 
[St]
-9.6 -10.9 91 -11  1023.2  -1.3  756  317  -9.9    0.2  равномерный
сухой снег
100% 
06 01.12.14 250 (З) 10 км  в посл. час морось{снег} [диам. изморози 5 мм]  10/10 210 м 
[St]
-9.9 -11.1 91 -12  1022.4  -0.8  755  317           
09 01.12.14 260 (З) 10 км  [диам. изморози 5 мм]  10/0 средняя, верхняя 
[Ac As|Cs]
-9.3 -10.5 91 -11  1021.4  -0.9  754  316           
Время (UTC), дата Ветер
(°,м/с) 
Видим.   Явления Облачность Т
(°С)
Тd
(°С)
f(%) Тe
(°С)
Pmin
(гПа)
dP
(гПа)
Po
(мм)
O2
(г/м3)
Тmin Tmax R s Состояние
почвы